Location: Unspecified
(0.0000°N, 0.0000°E)
Time: 08:47:35
(UTC+00:00)

deb r/b Ablestar - Pass Details

Date: 17 February 2026
Orbit: 888 x 1147 km, 67.2° (Epoch: 14 March)

Event Time Altitude Azimuth Distance (km) Brightness Sun altitude
Exits shadow 05:25:13 14° 298° (WNW) 2,738 ? -11.9°
Maximum altitude 05:29:56 26° 250° (WSW) 2,087 ? -10.8°
Drops below altitude 10° 05:35:44 10° 197° (SSW) 3,039 ? -9.4°
Sets 05:38:58 0° 184° (S) 3,993 ? -8.6°
